Regional Weather Roundup
Issued by NWS

Home | Current Version | Previous Version | Text Only | Print | Product List | Glossary On
Versions: 1 2 3 4 5 6 7 8 9 10 11 12 13 14 15 16 17 18 19 20 21 22 23 24 25 26 27
000
ASUS42 KTBW 311710
RWRFL
FLORIDA REGIONAL WEATHER ROUNDUP
NATIONAL WEATHER SERVICE TAMPA BAY RUSKIN FL
100 PM EDT FRI OCT 31 2014

NOTE: "FAIR" INDICATES FEW OR NO CLOUDS BELOW 12,000 FEET WITH NO
SIGNIFICANT WEATHER AND/OR OBSTRUCTIONS TO VISIBILITY.


FLZ001>010-012>015-112-114-115-311800-
PANHANDLE FLORIDA

CITY           SKY/WX    TMP DP  RH WIND       PRES   REMARKS
PENSACOLA      SUNNY     70  41  34 NW9       29.99F
PENSACOLA NAS  SUNNY     70  43  37 NW6       29.99F
MILTON NAS     MOSUNNY   71  41  33 NW9       29.98F
CRESTVIEW      SUNNY     70  42  36 NW6       29.99F
DUKE FIELD     MOSUNNY   69  40  35 NW10      29.97F
VALPARAISO     MOSUNNY   74  41  30 NW8       29.99F
MARY ESTHER    SUNNY     72  32  22 N9        29.97F
TRI COUNTY     FAIR      69  43  38 CALM      29.96F
PANAMA CITY    FAIR      70  40  33 NW10      29.95F
TYNDALL AFB    SUNNY     69  46  42 N9        29.96F
APALACHICOLA   SUNNY     72  42  34 N12       29.95F

STATION/POSITION SKY/WX   TEMP    WIND        PRES    WAVE   SWELL
                          AIR SEA DIR/SP/G            HT/PER HT/PER
                          (F)     (DEG/KT/KT) (MB)    (FT/S) (FT/S)
30.1N   87.6W              67 77  300/  8/ 10 1015.7F   1
29.2N   88.2W              69 78  330/ 12/ 16 1017.3F   3/ 5
28.8N   86.0W              69 78  340/ 14/ 17 1015.0    3/ 5
PANAMA CITY BEAC           67 75  310/  6/  9 1014.6F
CAPE SAN BLAS    NOT AVBL
TOWER C                    64     330/ 10/ 12 1014.1F
28.5N   84.5W              69 79  340/ 14/ 17 1014.0F   3/ 5

$$
FLZ011-016>038-118-127-128-134-139-239-311800-
NORTH FLORIDA

CITY           SKY/WX    TMP DP  RH WIND       PRES   REMARKS
MARIANNA       SUNNY     70  40  33 N9        29.95F
TALLAHASSEE    SUNNY     70  38  31 NW7G21    29.93F
PERRY          SUNNY     70  38  31 NW9G17    29.92F
CROSS CITY       N/A     73  45  36 NW10      29.90F
LAKE CITY      FAIR      70  55  60 NW9       29.88F
GAINESVILLE    PTSUNNY   69  56  62 NW8       29.88F
MAYPORT NAS    MOSUNNY   73  56  54 VRB3      29.85F
JACKSONVILLE   MOSUNNY   70  52  52 N8        29.85F
JAX NAS        PTSUNNY   74  53  48 N10       29.86F
JAX CRAIG      MOSUNNY   72  54  53 NW8       29.85F
JAX CECIL      MOSUNNY   73  55  53 NW9       29.86F
FERNANDINA BEA FAIR      77  55  47 NW9       29.84F
ST AUGUSTINE   PTSUNNY   73  59  61 NW9       29.85F

STATION/POSITION SKY/WX   TEMP    WIND        PRES    WAVE   SWELL
                          AIR SEA DIR/SP/G            HT/PER HT/PER
                          (F)     (DEG/KT/KT) (MB)    (FT/S) (FT/S)
SHELL POINT                65     340/  9/ 14   N/A
KEATON BEACH               67     290/ 10/ 12 1013.1F
CEDAR KEY                  68     330/  7/ 10 1013.7F
FERNANDINA                 70 74   20/  6/ 10 1010.4F
30.7N   81.3W                 76                N/A     3/ 4
MAYPORT                    70 76  350/  6/  9   N/A
31.4N   80.9W              67 74   10/ 12/ 16 1011.4F   3/ 6   2/ 6
ST AUGUSTINE               70     340/  9/ 12 1010.9F

$$
FLZ040-043>046-052-053-057-058-063-144-311800-
INTERIOR CENTRAL FLORIDA

CITY           SKY/WX    TMP DP  RH WIND       PRES   REMARKS
OCALA          MOSUNNY   72  52  49 N10       29.88F
THE VILLAGES     N/A     73  50  43 W8G14     29.77F
LEESBURG       SUNNY     74  47  38 NW12      29.87F
SANFORD        SUNNY     78  52  40 W12       29.84F
ORLANDO EXEC   SUNNY     77  53  43 W15       29.84F
ORLANDO INTL   MOSUNNY   78  56  46 W13       29.84F
KISSIMMEE      SUNNY     77  55  47 W10       29.85F
WINTER HAVEN   SUNNY     77  53  43 NW15      29.87F
LAKELAND       SUNNY     75  52  43 MISG      29.87
BARTOW         MOSUNNY   73  52  46 W10       29.87F
OKEECHOBEE     PTSUNNY   79  64  61 MISG      29.83

$$
FLZ041-047-054-059-064-141-147-311800-
EAST CENTRAL FLORIDA

CITY           SKY/WX    TMP DP  RH WIND       PRES   REMARKS
ORMOND BEACH   MOSUNNY   75  57  53 NW12G17   29.84F
DAYTONA BEACH  MOSUNNY   76  54  46 NW10      29.83F
DELAND         SUNNY     73  54  49 NW12      29.85F
NEW SMYRNA BEA MOSUNNY   77  59  53 MISG      29.84F
JFK SPACE CTR  MOSUNNY   78  62  57 W13       29.82F
TITUSVILLE     MOSUNNY   75  61  60 NW14      29.83
CAPE CANAVERAL SUNNY     79  64  59 NW12      29.80F
PATRICK AFB    SUNNY     79  65  62 NW10      29.81F
MELBOURNE      PTSUNNY   81  66  60 W12       29.81F
VERO BEACH     MOSUNNY   79  64  60 W13       29.81F
FT PIERCE      MOSUNNY   82  66  58 NW10      29.81F
STUART         PTSUNNY   82  64  54 SW12      29.82F

STATION/POSITION SKY/WX   TEMP    WIND        PRES    WAVE   SWELL
                          AIR SEA DIR/SP/G            HT/PER HT/PER
                          (F)     (DEG/KT/KT) (MB)    (FT/S) (FT/S)
28.5N   80.2W              74 80  310/ 14/ 16 1010.0F
28.9N   78.5W              69 82  310/ 19/ 25 1008.5F   3/ 8
TRIDENT PIER               77 78  300/  9/ 11 1009.2F
28.4N   80.5W                 78                N/A     1/ 8
27.6N   80.2W                 79                N/A     2/ 8

$$
FLZ050-056-061-142-242-148-248-149-249-151-251-155-255-
160-260-311800-
WEST CENTRAL FLORIDA

CITY           SKY/WX    TMP DP  RH WIND       PRES   REMARKS
CRYSTAL RIVER  FAIR      72  52  49 W9G17     29.89F
INVERNESS      FAIR      73  45  35 NW5       29.88F
BROOKSVILLE    SUNNY     73  48  41 W14       29.90F
ZEPHYRHILLS    FAIR      73  45  35 W15G21    29.89F
CLEARWATER     SUNNY     74  57  55 NW17      29.90F
TAMPA INTL     MOSUNNY   75  53  46 N12G21    29.89F
TAMPA EXEC     SUNNY     77  52  41 N12G22    29.89F
PLANT CITY     SUNNY     77  48  36 NW10G16   29.89F
MACDILL AFB    SUNNY     76  59  56 N14       29.89F
ST PETERSBURG  MOSUNNY   73  56  54 N10       29.87F
SARASOTA       MOSUNNY   74  58  57 NW14G22   29.88F
VENICE           N/A     75  61  60 NW20      29.89F

STATION/POSITION SKY/WX   TEMP    WIND        PRES    WAVE   SWELL
                          AIR SEA DIR/SP/G            HT/PER HT/PER
                          (F)     (DEG/KT/KT) (MB)    (FT/S) (FT/S)
CEDAR KEY                  68     330/  7/ 10 1013.7F
28.5N   84.5W              69 79  340/ 14/ 17 1014.0F   3/ 5
27.3N   84.3W                 80                N/A     4/ 5
CLEARWATER BEACH           69 75  340/ 16/ 21 1012.4F
MIDDLE TAMPA BAY           72     330/ 14/ 17 1012.4F
VENICE                     73 78  330/ 19/ 21 1011.4F

$$
FLZ066-069-070-075>078-162-262-165-265-311800-
SOUTHWEST FLORIDA AND KEYS

CITY           SKY/WX    TMP DP  RH WIND       PRES   REMARKS
PUNTA GORDA    MOSUNNY   81  65  58 NW10      29.87F
FT MYERS       MOSUNNY   80  66  62 NW8       29.84F
SOUTHWEST INTL PTSUNNY   78  65  63 NW9       29.85F
NAPLES         SUNNY     80  66  62 NW12      29.85F
MARCO ISLAND   SUNNY     82  66  57 NW12      29.85F
MARATHON       MOSUNNY   83  69  62 VRB5      29.86F
KEY WEST NAS   MOSUNNY   83  69  62 NW10      29.87F
KEY WEST INTL  MOSUNNY   82  70  66 W13       29.87F

STATION/POSITION SKY/WX   TEMP    WIND        PRES    WAVE   SWELL
                          AIR SEA DIR/SP/G            HT/PER HT/PER
                          (F)     (DEG/KT/KT) (MB)    (FT/S) (FT/S)
VENICE                     73 78  330/ 19/ 21 1011.4F
NAPLES                     75 83  320/ 12/ 14 1011.5F
26.0N   85.6W              75 80  350/ 14/ 19 1014.6F   4/ 6
DRY TORTUGAS               79     320/ 12/ 14 1012.1F
NW FL BAY                  79     270/ 10/ 11 1012.2F
SAND KEY                   79     290/ 13/ 16 1011.7F
SOMBRERO KEY               79     250/ 10/ 11 1011.8F
LONG KEY                   78 80  270/ 10/ 12 1012.6F
MOLASSES REEF              78 82  250/ 11/ 13 1010.9F

$$
FLZ067-068-071>074-168-172>174-311800-
SOUTHEAST FLORIDA

CITY           SKY/WX    TMP DP  RH WIND       PRES   REMARKS
W PALM BEACH   PTSUNNY   82  66  58 W14       29.80F
FT LAUDER-EXEC PTSUNNY   85  64  49 W8        29.82F
FT LAUDERDALE  PTSUNNY   85  65  51 SW10G20   29.82F
POMPANO BEACH  PTSUNNY   84  65  52 SW12      29.82F
PEMBROKE PINES SUNNY     84  63  49 W9        29.84F
OPA LOCKA      MOSUNNY   85  64  49 SW12      29.83F
MIAMI          MOSUNNY   85  64  49 SW12      29.83F
WEST KENDALL   MOSUNNY   88  66  48 W13       29.83F
HOMESTEAD      MOSUNNY   83  67  58 SW9       29.84F

STATION/POSITION SKY/WX   TEMP    WIND        PRES    WAVE   SWELL
                          AIR SEA DIR/SP/G            HT/PER HT/PER
                          (F)     (DEG/KT/KT) (MB)    (FT/S) (FT/S)
PORT EVERGLADES            81     250/  5/ 11 1009.9
VIRGINIA KEY               80 79  240/  7/  8 1010.7F
LAKE WORTH                 80 81  250/  8/ 11 1009.4F
FOWEY ROCKS                81 80  180/  5/  6 1010.5F



USA.gov is the U.S. government's official web portal to all federal, state and local government web resources and services.